{"data":{"norad_id":49753,"epoch":"2026-09-19T19:03:45.967392Z","epoch_age_seconds":106204,"freshness":"FRESH","line1":"1 49753U 21115AF  26262.79428203  .00013165  00000+0  40093-3 0  9995","line2":"2 49753  53.1605 345.0494 0001200  96.0662 264.0478 15.34332388265016","mean_motion":15.34332388,"eccentricity":0.00012,"inclination_deg":53.1605,"raan_deg":345.0494,"arg_perigee_deg":96.0662,"mean_anomaly_deg":264.0478,"bstar":0.00040093,"rev_number":26501,"period_min":93.851893583309,"perigee_km":462.08327975458,"apogee_km":463.72512964371,"semimajor_km":6841.0412046991,"source":"CELESTRAK","updated_at":"2026-09-20T09:00:39.409055Z"}}